DW6860 Weather Reports


time (UTC)temp
C
wind
direction
speed
KPH
gust
KPH
rain 1hr
cm
rain 24hr
cm
rain mn
cm
humidity
%
barometer
mb
20260505224049 11 355 8.0 19.3 0.00 0.08 0.00 78 1008.6
20260505224007 11 17 8.0 19.3 0.00 0.08 0.00 78 1008.6
20260505223540 11 13 9.7 19.3 0.00 0.08 0.00 78 1008.6
20260505223507 11 16 9.7 19.3 0.00 0.08 0.00 78 1008.7
20260505223046 11 22 8.0 19.3 0.00 0.08 0.00 77 1008.6
20260505223029 11 18 8.0 19.3 0.00 0.08 0.00 77 1008.6
20260505222544 11 15 8.0 19.3 0.00 0.08 0.00 77 1008.7
20260505222528 11 19 8.0 19.3 0.00 0.08 0.00 77 1008.7
20260505222257 11 0 6.4 16.1 0.00 0.08 0.00 77 1008.7
20260505222131 11 25 6.4 14.5 0.00 0.08 0.00 77 1008.6
20260505222029 11 17 6.4 14.5 0.00 0.08 0.00 77 1008.7
20260505221507 11 16 8.0 16.1 0.00 0.08 0.00 77 1008.7
20260505221036 11 25 8.0 16.1 0.00 0.10 0.00 77 1008.6
20260505221008 11 14 8.0 16.1 0.00 0.10 0.00 77 1008.7
20260505220545 11 329 6.4 16.1 0.00 0.10 0.00 77 1008.7
20260505220530 11 15 6.4 16.1 0.00 0.10 0.00 77 1008.7
20260505220107 11 21 6.4 16.1 0.00 0.10 0.00 77 1008.7
20260505220033 11 16 4.8 16.1 0.00 0.10 0.00 77 1008.8
20260505215758 11 17 6.4 14.5 0.00 0.10 0.00 77 1008.7
20260505215750 11 0 6.4 17.7 0.00 0.10 0.00 77 1008.8
20260505215621 11 48 4.8 12.9 0.00 0.10 0.00 77 1008.8
20260505215507 11 16 4.8 12.9 0.00 0.10 0.10 77 1008.8
20260505215007 11 17 6.4 14.5 0.00 0.10 0.10 77 1008.8
20260505214508 11 17 6.4 17.7 0.00 0.10 0.10 77 1008.8
20260505214035 11 21 6.4 17.7 0.00 0.10 0.00 77 1008.9
20260505214008 11 19 6.4 17.7 0.00 0.10 0.10 77 1008.9
20260505213532 11 338 6.4 14.5 0.00 0.10 0.00 77 1008.8
20260505213529 11 16 6.4 14.5 0.00 0.10 0.10 77 1008.8
20260505213033 11 30 6.4 14.5 0.00 0.10 0.00 77 1008.9
20260505213008 11 15 6.4 14.5 0.00 0.10 0.10 77 1008.9
20260505212812 11 17 4.8 9.7 0.00 0.10 0.00 78 1008.8
20260505212638 11 346 4.8 14.5 0.00 0.10 0.00 77 1008.8
20260505212507 11 18 4.8 14.5 0.00 0.10 0.10 77 1008.8
20260505212008 11 20 4.8 11.3 0.00 0.10 0.10 78 1008.9
20260505211536 11 28 4.8 11.3 0.00 0.10 0.00 78 1008.9
20260505211507 11 19 4.8 11.3 0.00 0.10 0.10 78 1008.9
20260505211044 11 63 6.4 14.5 0.00 0.10 0.00 78 1008.9
20260505211008 11 15 6.4 14.5 0.00 0.10 0.10 78 1008.9
20260505210741 11 18 4.8 11.3 0.00 0.10 0.00 78 1008.9
20260505210612 11 16 6.4 14.5 0.00 0.10 0.00 78 1008.8
20260505210507 11 16 4.8 14.5 0.00 0.10 0.10 78 1008.9
20260505210009 11 19 4.8 9.7 0.00 0.10 0.10 77 1008.9
20260505205818 11 22 6.4 14.5 0.00 0.10 0.00 77 1008.9
20260505205617 11 0 4.8 12.9 0.00 0.10 0.00 77 1008.9
20260505205528 11 21 4.8 12.9 0.00 0.10 0.10 77 1008.9
20260505205009 11 21 6.4 14.5 0.00 0.10 0.10 77 1009.0
20260505204538 11 27 6.4 14.5 0.00 0.10 0.00 77 1008.9
20260505204507 11 20 6.4 14.5 0.00 0.10 0.10 77 1008.9
20260505204312 11 27 8.0 14.5 0.00 0.13 0.00 76 1009.0
20260505204113 11 22 4.8 14.5 0.00 0.10 0.00 77 1008.9
20260505204008 11 20 4.8 14.5 0.00 0.10 0.10 77 1009.0
20260505203552 11 24 4.8 12.9 0.00 0.10 0.00 77 1009.0
20260505203508 11 23 4.8 12.9 0.00 0.10 0.10 77 1009.0
20260505203254 11 19 4.8 12.9 0.00 0.10 0.00 77 1009.0
20260505203008 11 26 4.8 14.5 0.00 0.10 0.10 77 1009.0
20260505202928 11 13 6.4 14.5 0.00 0.15 0.00 76 1009.0
20260505202630 11 59 6.4 14.5 0.00 0.13 0.00 76 1008.9
20260505202509 11 24 6.4 14.5 0.00 0.13 0.10 76 1009.0
20260505202028 11 23 8.0 14.5 0.00 0.13 0.10 76 1009.0
20260505201507 12 23 6.4 14.5 0.00 0.15 0.10 76 1009.0
20260505201032 11 14 4.8 14.5 0.00 0.18 0.00 76 1009.0
20260505201008 12 22 4.8 14.5 0.00 0.18 0.10 76 1009.0
20260505200549 12 19 6.4 19.3 0.00 0.20 0.00 76 1009.0
20260505200528 12 21 6.4 19.3 0.00 0.20 0.10 76 1009.0
20260505200054 12 340 8.0 19.3 0.00 0.20 0.00 75 1008.9
20260505200029 12 22 8.0 19.3 0.00 0.20 0.10 75 1009.0
20260505195538 12 27 8.0 19.3 0.00 0.20 0.00 75 1008.8
20260505195510 12 22 8.0 19.3 0.00 0.20 0.10 75 1008.9
20260505195041 12 42 6.4 16.1 0.00 0.20 0.00 75 1008.8
20260505195007 12 22 6.4 16.1 0.00 0.20 0.10 75 1008.8
20260505194539 12 34 6.4 14.5 0.00 0.20 0.00 75 1008.9
20260505194507 12 25 6.4 14.5 0.00 0.20 0.10 75 1008.9
20260505194040 12 21 8.0 17.7 0.00 0.20 0.00 75 1008.8
20260505194008 12 23 8.0 17.7 0.00 0.20 0.10 75 1008.8
20260505193526 12 25 6.4 17.7 0.00 0.20 0.00 75 1008.8
20260505193507 12 22 6.4 17.7 0.00 0.20 0.10 75 1008.8
20260505193032 12 38 6.4 16.1 0.00 0.20 0.00 75 1008.7
20260505193028 12 27 6.4 16.1 0.00 0.20 0.10 75 1008.7
20260505192538 12 355 8.0 19.3 0.00 0.20 0.00 75 1008.7
20260505192528 12 26 8.0 19.3 0.00 0.20 0.10 75 1008.8
20260505192035 12 28 9.7 19.3 0.00 0.20 0.00 75 1008.7
20260505192007 12 23 9.7 19.3 0.00 0.20 0.10 75 1008.7
20260505191533 12 21 6.4 16.1 0.00 0.20 0.00 76 1008.6
20260505191507 12 22 6.4 16.1 0.00 0.20 0.10 76 1008.6
20260505191317 12 5 4.8 9.7 0.00 0.20 0.00 78 1008.5
20260505191109 12 24 4.8 16.1 0.00 0.20 0.00 77 1008.6
20260505191009 12 26 4.8 16.1 0.00 0.20 0.10 77 1008.6
20260505190507 12 28 4.8 9.7 0.00 0.20 0.10 78 1008.5
20260505190259 13 51 3.2 8.0 0.00 0.20 0.00 78 1008.5
20260505190114 13 9 4.8 9.7 0.00 0.20 0.00 78 1008.6
20260505190008 13 31 4.8 9.7 0.00 0.20 0.10 78 1008.6
20260505185542 13 45 3.2 8.0 0.00 0.20 0.00 78 1008.5
20260505185507 13 31 3.2 8.0 0.00 0.20 0.10 78 1008.5
20260505185008 13 33 3.2 8.0 0.00 0.20 0.10 78 1008.5
20260505184528 13 36 3.2 11.3 0.00 0.20 0.00 78 1008.4
20260505184506 13 33 3.2 11.3 0.00 0.20 0.10 78 1008.4
20260505184034 13 45 4.8 11.3 0.00 0.20 0.00 78 1008.4
20260505184007 13 28 4.8 11.3 0.00 0.20 0.10 78 1008.4
20260505183525 13 32 4.8 8.0 0.00 0.20 0.00 78 1008.4
20260505183507 13 31 4.8 8.0 0.00 0.20 0.10 78 1008.4
20260505183036 13 17 3.2 8.0 0.00 0.20 0.00 77 1008.4
20260505183029 13 35 3.2 8.0 0.00 0.20 0.10 77 1008.4
20260505182619 13 53 3.2 8.0 0.00 0.20 0.00 77 1008.3
20260505182533 13 65 3.2 12.9 0.00 0.20 0.00 77 1008.3
20260505182507 13 30 3.2 12.9 0.00 0.20 0.10 77 1008.4
20260505182455 13 42 4.8 12.9 0.00 0.20 0.00 77 1008.3
20260505182133 13 22 1.6 12.9 0.00 0.20 0.00 77 1008.3
20260505182007 13 33 1.6 12.9 0.00 0.20 0.10 77 1008.4
20260505181507 13 37 3.2 8.0 0.00 0.20 0.10 77 1008.4
20260505181007 13 27 4.8 12.9 0.00 0.20 0.10 77 1008.3
20260505180826 13 5 4.8 12.9 0.00 0.20 0.00 76 1008.2
20260505180616 13 15 4.8 12.9 0.00 0.20 0.00 77 1008.2
20260505180507 13 31 4.8 12.9 0.00 0.20 0.10 77 1008.2
20260505180028 13 30 4.8 12.9 0.00 0.20 0.10 76 1008.2
20260505175528 13 29 4.8 12.9 0.00 0.20 0.10 76 1008.2
20260505175521 13 28 4.8 9.7 0.00 0.20 0.00 76 1008.2
20260505175016 13 50 4.8 12.9 0.00 0.20 0.00 76 1008.2
20260505175007 13 28 4.8 12.9 0.00 0.20 0.10 76 1008.2
20260505174517 13 16 4.8 14.5 0.00 0.20 0.00 76 1008.2
20260505174507 13 24 4.8 14.5 0.00 0.20 0.10 76 1008.3
20260505174020 13 24 4.8 14.5 0.00 0.20 0.00 76 1008.2
20260505174007 13 31 4.8 14.5 0.00 0.20 0.10 76 1008.2
20260505173534 13 0 4.8 14.5 0.00 0.20 0.00 76 1008.3
20260505173529 13 42 4.8 14.5 0.00 0.20 0.10 76 1008.3
20260505173027 13 86 4.8 12.9 0.00 0.20 0.00 76 1008.3
20260505173007 13 30 4.8 12.9 0.00 0.20 0.10 76 1008.3
20260505172530 13 26 4.8 12.9 0.00 0.20 0.10 77 1008.2
20260505172519 13 5 4.8 12.9 0.00 0.20 0.00 77 1008.2
20260505172014 13 53 4.8 14.5 0.00 0.20 0.00 77 1008.2
20260505172007 13 30 4.8 14.5 0.00 0.20 0.10 77 1008.2
20260505171509 13 42 6.4 14.5 0.00 0.20 0.00 77 1008.3
20260505171507 13 25 6.4 14.5 0.00 0.20 0.10 77 1008.4
20260505171029 13 20 6.4 14.5 0.00 0.20 0.10 77 1008.4
20260505171013 13 25 6.4 14.5 0.00 0.20 0.00 77 1008.3
20260505170507 13 18 4.8 14.5 0.00 0.20 0.10 77 1008.4
20260505170505 13 42 4.8 14.5 0.00 0.20 0.00 77 1008.4
20260505170008 13 25 4.8 14.5 0.00 0.20 0.10 77 1008.5
20260505170004 13 35 4.8 14.5 0.00 0.20 0.00 77 1008.4
20260505165645 13 53 6.4 14.5 0.00 0.20 0.00 77 1008.5
20260505165525 13 43 4.8 14.5 0.00 0.20 0.00 77 1008.4
20260505165507 13 33 4.8 14.5 0.00 0.20 0.10 77 1008.5
20260505165030 13 28 6.4 14.5 0.00 0.20 0.10 77 1008.5
20260505164507 13 27 8.0 17.7 0.00 0.20 0.10 77 1008.6
20260505164505 13 5 8.0 17.7 0.00 0.20 0.00 77 1008.6
20260505164008 13 30 8.0 17.7 0.00 0.20 0.10 77 1008.6
20260505164001 13 26 8.0 17.7 0.00 0.20 0.00 77 1008.6
20260505163506 13 26 6.4 14.5 0.00 0.20 0.10 77 1008.5
20260505163502 13 46 6.4 14.5 0.00 0.20 0.00 77 1008.5
20260505163347 13 347 6.4 16.1 0.00 0.20 0.00 77 1008.6
20260505163103 13 31 6.4 14.5 0.00 0.20 0.00 77 1008.6
20260505163009 13 17 6.4 14.5 0.00 0.20 0.10 77 1008.6
20260505162521 13 17 6.4 14.5 0.00 0.20 0.00 78 1008.6
20260505162507 13 21 6.4 14.5 0.00 0.20 0.10 78 1008.7
20260505162029 13 25 6.4 16.1 0.00 0.20 0.10 78 1008.6
20260505161506 13 29 6.4 16.1 0.00 0.20 0.10 78 1008.6
20260505161503 13 5 6.4 16.1 0.00 0.20 0.00 78 1008.6
20260505161007 13 34 6.4 16.1 0.00 0.20 0.10 78 1008.7
20260505160957 13 31 6.4 16.1 0.00 0.20 0.00 78 1008.6
20260505160507 13 27 6.4 16.1 0.00 0.20 0.10 78 1008.6
20260505160457 13 42 6.4 16.1 0.00 0.20 0.00 78 1008.6
20260505153007 13 29 6.4 17.7 0.00 0.20 0.10 80 1008.8
20260505152950 13 34 6.4 17.7 0.00 0.20 0.00 80 1008.8
20260505152507 13 35 4.8 16.1 0.00 0.20 0.10 81 1008.9
20260505152443 13 80 4.8 16.1 0.00 0.20 0.00 81 1008.8
20260505152055 13 32 6.4 14.5 0.00 0.20 0.00 82 1008.8
20260505152007 13 26 6.4 16.1 0.00 0.20 0.10 81 1008.9
20260505152001 13 40 6.4 16.1 0.00 0.20 0.00 81 1008.8
20260505151508 13 24 6.4 14.5 0.00 0.20 0.10 82 1008.8
20260505151007 13 24 6.4 14.5 0.00 0.20 0.10 82 1008.9
20260505150940 13 10 6.4 14.5 0.00 0.20 0.00 82 1008.9
20260505150508 13 22 6.4 14.5 0.00 0.20 0.10 84 1009.1
20260505150445 12 22 6.4 14.5 0.00 0.20 0.00 84 1009.1
20260505140527 12 20 6.4 14.5 0.00 0.20 0.10 83 1009.4
20260505140432 12 35 6.4 14.5 0.00 0.20 0.00 83 1009.4
20260505125007 12 23 4.8 12.9 0.00 0.20 0.10 86 1009.9
20260505124948 12 31 4.8 12.9 0.00 0.20 0.00 86 1009.8
20260505124932 12 32 4.8 12.9 0.00 0.20 0.00 86 1009.8
20260505124528 12 19 4.8 12.9 0.00 0.20 0.10 86 1009.8
20260505124030 12 20 4.8 11.3 0.00 0.20 0.10 86 1009.9
20260505123921 12 26 3.2 11.3 0.00 0.20 0.00 86 1009.8
20260505123507 12 35 4.8 9.7 0.00 0.20 0.10 86 1009.9
20260505123410 12 86 4.8 9.7 0.00 0.20 0.00 86 1009.9
20260505123006 12 31 4.8 12.9 0.00 0.20 0.10 86 1010.0
20260505122917 12 67 4.8 12.9 0.00 0.20 0.00 86 1009.9
20260505122527 12 31 4.8 12.9 0.00 0.20 0.10 86 1010.0
20260505122412 12 24 4.8 12.9 0.00 0.20 0.00 86 1009.9
20260505122112 11 44 4.8 16.1 0.00 0.20 0.00 88 1010.1
20260505122007 12 37 4.8 11.3 0.00 0.20 0.10 86 1009.9
20260505121946 11 51 4.8 12.9 0.00 0.20 0.00 86 1009.9
20260505121905 12 95 4.8 14.5 0.00 0.20 0.00 86 1009.9
20260505121609 11 42 4.8 14.5 0.00 0.20 0.00 86 1010.0
20260505121528 12 31 4.8 14.5 0.00 0.20 0.10 86 1010.0
20260505121007 12 29 4.8 14.5 0.00 0.20 0.10 87 1010.0
20260505120507 11 30 4.8 11.3 0.00 0.20 0.10 87 1010.1
20260505120433 11 42 4.8 9.7 0.00 0.20 0.00 87 1010.0
20260505120119 11 30 6.4 14.5 0.00 0.20 0.00 87 1010.1
20260505120028 11 28 4.8 14.5 0.00 0.20 0.10 87 1010.1
20260505115528 11 35 4.8 14.5 0.00 0.20 0.10 87 1010.1
20260505115414 11 9 6.4 14.5 0.00 0.20 0.00 87 1010.1
20260505115028 11 36 6.4 16.1 0.00 0.20 0.10 87 1010.1
20260505114542 11 13 6.4 17.7 0.00 0.20 0.00 88 1010.1
20260505114506 11 28 4.8 16.1 0.00 0.20 0.10 88 1010.1
20260505114409 11 28 4.8 16.1 0.00 0.20 0.00 88 1010.1
20260505114007 11 28 6.4 14.5 0.00 0.20 0.10 88 1010.2
20260505113507 11 31 8.0 17.7 0.00 0.20 0.10 88 1010.1
20260505113355 11 29 8.0 17.7 0.00 0.20 0.00 88 1010.2
20260505113007 11 29 8.0 17.7 0.00 0.20 0.10 89 1010.3
20260505112846 11 29 6.4 17.7 0.00 0.20 0.00 89 1010.2
20260505112714 11 32 6.4 14.5 0.00 0.20 0.00 91 1010.2
20260505112507 11 27 6.4 17.7 0.00 0.20 0.10 89 1010.3
20260505112453 11 5 6.4 14.5 0.00 0.20 0.00 90 1010.2
20260505112007 11 30 4.8 14.5 0.00 0.20 0.10 90 1010.2
20260505111923 11 43 4.8 8.0 0.00 0.20 0.00 90 1010.2
20260505111508 11 30 4.8 8.0 0.00 0.20 0.10 91 1010.2
20260505111351 11 26 4.8 14.5 0.00 0.20 0.00 91 1010.2
20260505111009 11 34 6.4 14.5 0.00 0.20 0.10 91 1010.3
20260505110506 11 32 6.4 14.5 0.00 0.20 0.10 91 1010.3
20260505110452 11 26 6.4 16.1 0.00 0.20 0.00 92 1010.3
20260505110413 11 355 6.4 12.9 0.00 0.20 0.00 91 1010.3
20260505102007 10 22 8.0 17.7 0.00 0.20 0.10 93 1010.4
20260505101841 10 25 8.0 16.1 0.00 0.20 0.00 94 1010.4
20260505101508 10 24 8.0 14.5 0.00 0.20 0.10 94 1010.4
20260505101341 10 25 8.0 14.5 0.00 0.20 0.00 94 1010.4
20260505101007 10 27 6.4 14.5 0.00 0.20 0.10 94 1010.5
20260505100853 10 20 6.4 17.7 0.00 0.20 0.00 94 1010.5
20260505100836 10 38 6.4 14.5 0.00 0.20 0.00 94 1010.5
20260505100506 10 26 6.4 17.7 0.00 0.20 0.10 94 1010.5
20260505100028 10 25 8.0 17.7 0.00 0.20 0.10 94 1010.6
20260505095919 10 30 8.0 17.7 0.00 0.20 0.00 94 1010.5
20260505095844 10 355 8.0 17.7 0.00 0.20 0.00 94 1010.5
20260505095506 10 23 8.0 17.7 0.00 0.20 0.10 94 1010.6
20260505095028 10 22 8.0 17.7 0.00 0.23 0.10 94 1010.6
20260505094844 10 355 6.4 14.5 0.00 0.23 0.00 94 1010.6
20260505094506 10 23 6.4 14.5 0.00 0.23 0.10 94 1010.6
20260505094330 10 26 4.8 12.9 0.00 0.23 0.00 94 1010.6
20260505094008 10 23 6.4 12.9 0.00 0.23 0.10 94 1010.7
20260505093832 10 28 6.4 12.9 0.00 0.23 0.00 94 1010.6
20260505093527 10 22 6.4 12.9 0.00 0.23 0.10 94 1010.6
20260505093333 10 34 6.4 14.5 0.00 0.23 0.00 94 1010.6
20260505093006 10 22 8.0 14.5 0.00 0.25 0.10 94 1010.5
20260505092833 10 48 6.4 14.5 0.00 0.25 0.00 94 1010.6
20260505092506 10 23 6.4 14.5 0.00 0.25 0.10 94 1010.7
20260505092334 10 29 6.4 14.5 0.00 0.25 0.00 94 1010.7
20260505092008 10 22 4.8 12.9 0.00 0.25 0.10 94 1010.7
20260505091837 10 30 4.8 12.9 0.00 0.25 0.00 94 1010.6
20260505091506 10 28 4.8 11.3 0.00 0.25 0.10 94 1010.6
20260505091331 10 30 6.4 12.9 0.00 0.25 0.00 94 1010.6
20260505091006 10 32 6.4 14.5 0.00 0.25 0.10 94 1010.6
20260505090831 10 67 6.4 14.5 0.00 0.25 0.00 94 1010.7
20260505090527 10 31 6.4 14.5 0.00 0.25 0.10 94 1010.7
20260505090330 10 36 6.4 19.3 0.00 0.25 0.00 94 1010.6
20260505090007 10 33 6.4 19.3 0.00 0.25 0.10 94 1010.7
20260505085829 10 35 6.4 19.3 0.00 0.25 0.00 94 1010.6
20260505085506 10 29 6.4 19.3 0.00 0.25 0.10 94 1010.7
20260505085338 10 0 6.4 17.7 0.00 0.00 0.00 94 1010.6
20260505085028 10 29 6.4 17.7 0.00 0.25 0.10 94 1010.7
20260505084842 10 15 6.4 17.7 0.00 0.00 0.00 94 1010.7
20260505084506 10 30 6.4 14.5 0.00 0.25 0.10 94 1010.8
20260505084328 10 25 8.0 14.5 0.00 0.00 0.00 94 1010.7
20260505084310 10 25 8.0 19.3 0.00 0.00 0.00 94 1010.8
20260505084028 10 29 8.0 19.3 0.00 0.25 0.10 94 1010.7
20260505083651 10 61 6.4 16.1 0.00 0.00 0.00 94 1010.7
20260505083507 10 35 6.4 19.3 0.00 0.25 0.10 94 1010.8
20260505083448 10 22 6.4 19.3 0.00 0.00 0.00 94 1010.7
20260505083050 10 42 8.0 17.7 0.00 0.00 0.00 94 1010.6
20260505083032 10 5 6.4 17.7 0.00 0.00 0.00 94 1010.6
20260505083007 10 32 8.0 16.1 0.00 0.25 0.10 94 1010.7
20260505082917 10 61 6.4 16.1 0.00 0.00 0.00 94 1010.7
20260505082506 10 25 8.0 16.1 0.00 0.25 0.10 94 1010.5
20260505082006 10 25 8.0 17.7 0.00 0.25 0.10 94 1010.6
20260505081551 10 17 6.4 17.7 0.00 0.00 0.00 94 1010.7
20260505081546 10 26 6.4 17.7 0.00 0.00 0.00 94 1010.7
20260505081506 10 23 6.4 17.7 0.00 0.25 0.10 94 1010.6
20260505081358 10 28 6.4 16.1 0.00 0.00 0.00 94 1010.6
20260505081029 10 23 6.4 17.7 0.00 0.25 0.10 94 1010.7
20260505080506 10 28 6.4 17.7 0.00 0.25 0.10 94 1010.7
20260505080006 10 28 6.4 16.1 0.00 0.25 0.10 94 1010.7
20260505075822 10 54 6.4 16.1 0.00 0.00 0.00 94 1010.6
20260505075637 10 43 8.0 22.5 0.00 0.00 0.00 94 1010.6
20260505075609 10 49 8.0 22.5 0.00 0.00 0.00 94 1010.5
20260505075506 10 27 8.0 16.1 0.00 0.25 0.10 94 1010.6
20260505075410 10 15 8.0 16.1 0.00 0.00 0.00 94 1010.5
20260505075007 10 30 8.0 16.1 0.00 0.25 0.10 94 1010.6
20260505074506 10 29 8.0 22.5 0.00 0.25 0.10 94 1010.6
20260505074007 10 31 8.0 22.5 0.00 0.25 0.10 94 1010.6
20260505073819 10 49 6.4 16.1 0.00 0.00 0.00 94 1010.5
20260505073540 10 355 6.4 16.1 0.00 0.00 0.00 94 1010.6
20260505073506 10 30 6.4 16.1 0.00 0.25 0.10 94 1010.6
20260505073027 10 25 6.4 16.1 0.00 0.25 0.10 94 1010.6
20260505072819 10 28 6.4 16.1 0.00 0.00 0.00 94 1010.5
20260505072506 10 29 6.4 16.1 0.00 0.25 0.10 94 1010.6
20260505072314 10 47 4.8 16.1 0.00 0.00 0.00 94 1010.5
20260505072006 10 36 4.8 8.0 0.00 0.25 0.10 94 1010.5
20260505071822 10 20 4.8 11.3 0.00 0.00 0.00 94 1010.6
20260505071542 10 266 4.8 16.1 0.00 0.00 0.00 94 1010.6
20260505071506 10 33 4.8 11.3 0.00 0.25 0.10 94 1010.6
20260505071418 10 38 4.8 12.9 0.00 0.00 0.00 94 1010.6
20260505071006 10 27 4.8 12.9 0.00 0.25 0.10 94 1010.6
20260505070507 10 24 6.4 16.1 0.00 0.25 0.10 94 1010.6
20260505070317 10 15 6.4 16.1 0.00 0.00 0.00 94 1010.6
20260505070007 10 20 8.0 17.7 0.00 0.25 0.10 94 1010.7
20260505065826 10 10 8.0 19.3 0.00 0.00 0.00 94 1010.6
20260505065506 10 20 8.0 19.3 0.00 0.25 0.10 94 1010.7
20260505065314 10 15 8.0 19.3 0.00 0.00 0.00 94 1010.7
20260505065006 10 26 8.0 19.3 0.00 0.25 0.10 94 1010.6
20260505064810 10 29 8.0 17.7 0.00 0.00 0.00 94 1010.6
20260505064508 10 27 9.7 17.7 0.00 0.25 0.10 94 1010.7
20260505064320 10 22 9.7 17.7 0.00 0.00 0.00 94 1010.6
20260505064007 10 23 9.7 17.7 0.00 0.25 0.10 94 1010.6
20260505063809 10 49 9.7 17.7 0.00 0.00 0.00 94 1010.5
20260505063506 10 21 8.0 17.7 0.00 0.25 0.10 94 1010.7
20260505063315 10 32 8.0 19.3 0.00 0.00 0.00 94 1010.7
20260505063027 10 22 9.7 19.3 0.00 0.25 0.10 94 1010.7
20260505062812 10 56 9.7 19.3 0.00 0.00 0.00 94 1010.7
20260505062505 10 24 9.7 19.3 0.00 0.25 0.10 94 1010.7
20260505062313 10 5 9.7 17.7 0.00 0.00 0.00 94 1010.7
20260505062027 10 19 9.7 17.7 0.00 0.25 0.10 94 1010.7
20260505061809 10 36 8.0 17.7 0.00 0.00 0.00 94 1010.7
20260505061506 10 20 8.0 20.9 0.00 0.25 0.10 94 1010.7
20260505061302 10 15 8.0 20.9 0.00 0.00 0.00 94 1010.7
20260505061006 10 22 8.0 20.9 0.00 0.25 0.10 94 1010.8
20260505060804 10 44 8.0 20.9 0.00 0.00 0.00 94 1010.7
20260505060507 10 17 8.0 17.7 0.00 0.25 0.10 94 1010.8
20260505060301 10 12 9.7 19.3 0.00 0.00 0.00 94 1010.8
20260505060027 10 18 9.7 19.3 0.00 0.25 0.10 94 1010.9
20260505055758 10 26 8.0 19.3 0.00 0.00 0.00 94 1010.8
20260505055642 10 12 6.4 16.1 0.00 0.00 0.00 94 1010.5
20260505055546 10 5 8.0 19.3 0.00 0.00 0.00 94 1010.9
20260505055506 10 18 6.4 19.3 0.00 0.25 0.10 94 1010.9
20260505055334 10 46 6.4 19.3 0.00 0.00 0.00 94 1010.8
20260505055006 10 16 6.4 19.3 0.00 0.25 0.10 94 1010.9
20260505054751 10 30 6.4 16.1 0.00 0.00 0.00 94 1010.8
20260505054741 10 13 6.4 16.1 0.00 0.00 0.00 94 1010.7
20260505054506 10 16 6.4 14.5 0.00 0.25 0.10 94 1010.8
20260505054304 10 33 6.4 14.5 0.00 0.00 0.00 94 1010.8
20260505054118 10 17 4.8 11.3 0.00 0.00 0.00 94 1010.6
20260505054041 10 25 6.4 12.9 0.00 0.00 0.00 94 1010.7
20260505054026 10 42 6.4 16.1 0.00 0.00 0.00 94 1010.6
20260505054006 10 22 6.4 14.5 0.00 0.25 0.10 94 1010.9
20260505053838 10 17 6.4 14.5 0.00 0.00 0.00 94 1010.8
20260505053506 10 26 6.4 14.5 0.00 0.25 0.10 94 1010.8
20260505053357 10 32 4.8 14.5 0.00 0.00 0.00 94 1010.4
20260505053323 10 18 6.4 14.5 0.00 0.00 0.00 94 1010.7
20260505053006 10 23 6.4 16.1 0.00 0.25 0.10 94 1010.8
20260505052956 10 34 6.4 16.1 0.00 0.00 0.00 94 1010.8
20260505052527 10 23 6.4 16.1 0.00 0.25 0.10 94 1010.8
20260505052028 10 24 6.4 16.1 0.00 0.25 0.10 94 1010.8
20260505051642 10 27 4.8 16.1 0.00 0.00 0.00 94 1010.7
20260505051506 10 22 6.4 16.1 0.00 0.25 0.10 94 1010.8
20260505050506 10 29 4.8 12.9 0.00 0.25 0.10 94 1010.7
20260505041748 10 350 6.4 14.5 0.00 0.00 0.00 94 1010.3
20260505041506 10 18 6.4 12.9 0.00 0.25 0.10 93 1010.3
20260505041006 10 18 6.4 12.9 0.00 0.25 0.10 93 1010.3
20260505040754 10 30 6.4 17.7 0.00 0.00 0.00 93 1010.3
20260505040735 10 13 6.4 17.7 0.00 0.00 0.00 93 1010.2
20260505040506 10 21 6.4 17.7 0.00 0.25 0.10 93 1010.4
20260505040008 10 22 8.0 17.7 0.00 0.25 0.10 93 1010.4
20260505035739 10 30 6.4 17.7 0.00 0.00 0.00 93 1010.3
20260505035506 10 22 6.4 17.7 0.00 0.25 0.10 93 1010.4
20260505035319 10 19 6.4 16.1 0.00 0.00 0.00 93 1010.4
20260505035250 10 24 6.4 17.7 0.00 0.00 0.00 93 1010.3
20260505035007 10 22 6.4 14.5 0.00 0.25 0.10 93 1010.3
20260505034506 10 24 8.0 16.1 0.00 0.25 0.10 93 1010.4
20260505034235 10 36 8.0 16.1 0.00 0.00 0.00 93 1010.4
20260505034027 11 24 6.4 16.1 0.00 0.25 0.10 93 1010.4
20260505033731 10 17 6.4 16.1 0.03 0.00 0.00 93 1010.4
20260505033646 11 38 8.0 17.7 0.03 0.00 0.00 93 1010.4
20260505033506 11 22 6.4 17.7 0.03 0.25 0.10 93 1010.4
20260505033237 10 39 6.4 17.7 0.03 0.00 0.00 93 1010.4
20260505033008 11 22 8.0 17.7 0.03 0.25 0.10 93 1010.4
20260505032506 11 24 8.0 17.7 0.03 0.25 0.10 93 1010.4
20260505032232 11 37 8.0 17.7 0.03 0.00 0.00 93 1010.4
20260505032027 11 24 8.0 17.7 0.03 0.25 0.10 93 1010.5
20260505031736 11 28 8.0 16.1 0.05 0.00 0.00 93 1010.5
20260505031505 11 21 8.0 16.1 0.05 0.25 0.10 93 1010.6
20260505031237 11 28 6.4 17.7 0.05 0.00 0.00 93 1010.5
20260505031006 11 19 6.4 17.7 0.08 0.25 0.10 93 1010.6
20260505030730 11 5 6.4 17.7 0.08 0.00 0.00 93 1010.6
20260505030527 11 17 6.4 17.7 0.08 0.25 0.10 93 1010.6
20260505030224 11 13 6.4 16.1 0.08 0.00 0.00 93 1010.6
20260505030006 11 14 6.4 16.1 0.08 0.25 0.10 93 1010.7
20260505025716 11 41 6.4 14.5 0.08 0.00 0.00 93 1010.7
20260505025507 11 15 6.4 19.3 0.08 0.25 0.10 93 1010.7
20260505025229 11 344 6.4 19.3 0.08 0.00 0.00 93 1010.6
20260505025007 11 16 6.4 19.3 0.08 0.25 0.10 93 1010.6
20260505024719 11 23 6.4 19.3 0.08 0.00 0.00 93 1010.6
20260505024506 11 15 6.4 14.5 0.08 0.25 0.10 93 1010.7
20260505024224 11 19 6.4 16.1 0.08 0.00 0.00 93 1010.6
20260505024027 11 19 6.4 16.1 0.08 0.25 0.10 93 1010.6
20260505023717 11 72 6.4 16.1 0.05 0.00 0.00 93 1010.6
20260505023507 11 23 6.4 16.1 0.05 0.23 0.08 93 1010.6
20260505023214 11 11 6.4 12.9 0.05 0.00 0.00 93 1010.5
20260505023006 11 26 6.4 12.9 0.05 0.23 0.08 92 1010.5
20260505022727 11 21 6.4 12.9 0.05 0.00 0.00 92 1010.5
20260505022506 11 26 6.4 12.9 0.05 0.23 0.08 92 1010.5
20260505022219 11 61 6.4 14.5 0.05 0.00 0.00 93 1010.6
20260505022006 11 24 8.0 16.1 0.05 0.23 0.08 93 1010.5
20260505021720 11 30 6.4 16.1 0.05 0.00 0.00 93 1010.5
20260505021506 11 23 6.4 16.1 0.03 0.20 0.05 93 1010.5
20260505021253 11 24 6.4 16.1 0.03 0.00 0.00 92 1010.5
20260505021006 11 23 6.4 16.1 0.00 0.18 0.03 92 1010.5
20260505020724 11 39 8.0 16.1 0.00 0.00 0.00 92 1010.5
20260505020528 11 23 8.0 16.1 0.00 0.18 0.03 92 1010.6
20260505020216 11 26 8.0 16.1 0.00 0.00 0.00 92 1010.5
20260505020006 11 21 8.0 16.1 0.00 0.18 0.03 92 1010.6
20260505015708 11 26 8.0 16.1 0.00 0.00 0.00 92 1010.6
20260505015506 12 21 8.0 16.1 0.00 0.18 0.03 92 1010.6
20260505015223 12 37 8.0 14.5 0.00 0.00 0.00 92 1010.7
20260505015007 12 22 6.4 14.5 0.00 0.18 0.03 92 1010.6
20260505014714 12 29 4.8 14.5 0.00 0.00 0.00 92 1010.6
20260505014506 12 26 4.8 12.9 0.00 0.18 0.03 92 1010.7
20260505014453 12 13 4.8 12.9 0.00 0.00 0.00 92 1010.6
20260505014006 12 25 4.8 11.3 0.00 0.18 0.03 92 1010.8
20260505013713 12 22 4.8 14.5 0.00 0.00 0.00 92 1010.7
20260505013505 12 25 4.8 14.5 0.00 0.18 0.03 92 1010.7
20260505013218 12 34 4.8 14.5 0.00 0.00 0.00 92 1010.8
20260505013006 12 25 4.8 16.1 0.00 0.18 0.03 92 1010.8
20260505012939 12 14 6.4 16.1 0.00 0.00 0.00 92 1010.8
20260505012921 12 48 6.4 17.7 0.00 0.00 0.00 92 1010.8
20260505012756 12 39 6.4 16.1 0.00 0.00 0.00 92 1010.7
20260505012507 12 20 6.4 16.1 0.00 0.18 0.03 92 1010.8
20260505012006 12 18 6.4 16.1 0.00 0.18 0.03 92 1010.9
20260505011508 12 14 6.4 17.7 0.00 0.18 0.03 92 1010.8
20260505011209 12 34 6.4 20.9 0.00 0.00 0.00 92 1010.8
20260505011006 12 14 8.0 20.9 0.00 0.18 0.03 92 1010.9
20260505010709 12 349 8.0 20.9 0.00 0.00 0.00 92 1010.8
20260505010546 12 21 8.0 16.1 0.00 0.00 0.00 92 1010.9
20260505010505 12 14 8.0 20.9 0.00 0.18 0.03 92 1010.9
20260505010316 12 12 8.0 19.3 0.00 0.00 0.00 92 1010.9
20260505010007 12 15 8.0 19.3 0.00 0.18 0.03 92 1010.9
20260505005506 12 19 9.7 16.1 0.00 0.18 0.03 92 1010.9
20260505005150 12 28 9.7 16.1 0.00 0.00 0.00 92 1010.9
20260505005028 12 19 9.7 17.7 0.00 0.18 0.03 92 1010.9
20260505004702 12 26 9.7 20.9 0.00 0.00 0.00 92 1010.9
20260505004505 12 20 11.3 20.9 0.00 0.18 0.03 92 1011.0
20260505004147 12 17 11.3 20.9 0.00 0.00 0.00 92 1010.9
20260505004006 12 23 11.3 20.9 0.00 0.18 0.03 92 1010.9
20260505003651 12 30 9.7 20.9 0.00 0.00 0.00 92 1010.9
20260505003506 12 22 9.7 20.9 0.00 0.18 0.03 92 1011.0
20260505003445 12 31 8.0 20.9 0.00 0.00 0.00 92 1011.0
20260505003241 12 0 9.7 19.3 0.00 0.00 0.00 92 1010.9
20260505003007 12 22 9.7 20.9 0.00 0.18 0.03 92 1011.0
20260505002708 12 29 11.3 20.9 0.00 0.00 0.00 92 1010.9
20260505002527 12 21 9.7 20.9 0.00 0.18 0.03 92 1010.9
20260505002029 12 18 8.0 20.9 0.00 0.18 0.03 92 1010.9
20260505001947 12 11 6.4 14.5 0.00 0.00 0.00 92 1011.0
20260505001645 12 11 6.4 14.5 0.00 0.00 0.00 92 1011.0
20260505001528 12 19 6.4 12.9 0.00 0.18 0.03 92 1011.0
20260505001145 12 17 6.4 12.9 0.00 0.00 0.00 92 1011.0
20260505001028 12 17 4.8 12.9 0.00 0.18 0.03 92 1011.0
20260505000640 12 36 6.4 14.5 0.00 0.00 0.00 92 1011.0
20260505000505 12 17 6.4 14.5 0.00 0.18 0.03 92 1010.9
20260505000147 12 0 6.4 16.1 0.00 0.00 0.00 92 1010.9
20260505000007 12 21 6.4 16.1 0.00 0.18 0.03 92 1011.1
20260504235933 12 29 6.4 14.5 0.00 0.00 0.00 92 1011.0
20260504235735 12 10 6.4 16.1 0.00 0.00 0.00 92 1011.0
20260504235505 12 20 6.4 16.1 0.00 0.18 0.03 92 1011.1
20260504235006 13 15 6.4 14.5 0.00 0.18 0.03 92 1011.1
20260504234640 13 5 6.4 16.1 0.00 0.00 0.00 92 1011.0
20260504234506 13 14 8.0 16.1 0.00 0.18 0.03 92 1011.1
20260504234147 13 11 8.0 16.1 0.00 0.00 0.00 92 1011.2
20260504234007 13 16 8.0 16.1 0.00 0.18 0.03 92 1011.2
20260504233640 13 46 6.4 16.1 0.00 0.00 0.00 92 1011.1
20260504233506 13 17 8.0 16.1 0.00 0.18 0.03 92 1011.2
20260504233349 13 5 8.0 16.1 0.00 0.00 0.00 92 1011.1
20260504233226 13 11 6.4 16.1 0.00 0.00 0.00 92 1011.1
20260504233006 13 18 8.0 16.1 0.00 0.18 0.03 92 1011.1
20260504232505 13 19 8.0 16.1 0.00 0.18 0.03 92 1011.1
20260504232140 13 5 8.0 16.1 0.00 0.00 0.00 92 1011.2
20260504232006 13 20 6.4 16.1 0.00 0.18 0.03 92 1011.2
20260504231651 13 0 6.4 16.1 0.00 0.00 0.00 92 1011.1
20260504231522 13 5 4.8 16.1 0.03 0.00 0.00 92 1011.2
20260504231505 13 22 4.8 16.1 0.00 0.18 0.03 92 1011.2
20260504231253 13 0 4.8 11.3 0.03 0.00 0.00 92 1011.2
20260504231006 13 19 4.8 16.1 0.03 0.18 0.03 92 1011.2
20260504230711 13 24 4.8 16.1 0.03 0.00 0.00 92 1011.3
20260504230505 13 13 4.8 16.1 0.03 0.18 0.03 92 1011.2
20260504230006 13 13 4.8 11.3 0.03 0.18 0.03 92 1011.3
20260504225650 13 11 6.4 12.9 0.03 0.00 0.00 92 1011.3
20260504225526 13 18 6.4 14.5 0.03 0.18 0.03 92 1011.3
20260504225135 13 19 6.4 14.5 0.03 0.00 0.00 92 1011.3
20260504225006 13 18 6.4 14.5 0.03 0.18 0.03 92 1011.4
20260504224632 13 342 4.8 14.5 0.03 0.00 0.00 92 1011.4
20260504224505 13 17 4.8 12.9 0.03 0.18 0.03 92 1011.4
20260504224414 13 11 4.8 12.9 0.03 0.00 0.00 92 1011.4